Weather History for KCWF - April, 2014

Change the Weather History Date:

Saturday, April 12, 2014

  Actual Average Record
Temperature  
Mean Temperature 68 °F -  
Max Temperature 79 °F 77 °F 100 °F (1999)
Min Temperature 58 °F 61 °F 47 °F (2013)
Cooling Degree Days 3    
Growing Degree Days 18 (Base 50)    
Moisture  
Dew Point 60 °F    
Average Humidity 86    
Maximum Humidity 100    
Minimum Humidity 47    
Precipitation  
Precipitation 0.00 in - - ()
Sea Level Pressure  
Sea Level Pressure 30.05 in    
Wind  
Wind Speed 6 mph (SSE)    
Max Wind Speed 13 mph    
Max Gust Speed 17 mph    
Visibility 7 miles    
Events Fog    
Averages and records for this station are not official NWS values.
T = Trace of Precipitation, MM = Missing Value Source: NWS Daily Summary

Daily Weather History Graph

Daily Weather History Graph

Search for Another Location

Airport or City:

Trip Planner

Search our weather history database for the weather conditions in past years. The results will help you decide how hot, cold, wet, or windy it might be!

Date:

Astronomy

Apr. 12, 2014 Rise Set
Actual Time 6:48 AM CDT 7:38 PM CDT
Civil Twilight 6:24 AM CDT 8:02 PM CDT
Nautical Twilight 5:55 AM CDT 8:31 PM CDT
Astronomical Twilight 5:26 AM CDT 9:01 PM CDT
Moon 5:26 PM CDT (4/12) 5:04 AM CDT (4/12)
Length of Visible Light 13h 38m
Length of Day
12h 49m
Waxing Gibbous, 93% of the Moon is Illuminated
Apr 12
Waxing Gibbous
Apr 15
Full
Apr 22
Last Quarter
Apr 29
New
May 6
First Quarter

Hourly Weather History & Observations

Time (CDT) Temp. Dew Point Humidity Pressure Visibility Wind Dir Wind Speed Gust Speed Precip Events Conditions
12:15 AM 60.3 °F 58.1 °F 93% 30.08 in 10.0 mi SE 5.8 mph - N/A   Clear
12:35 AM 60.8 °F 58.6 °F 93% 30.07 in 10.0 mi SSE 6.9 mph - N/A   Clear
12:55 AM 60.4 °F 58.3 °F 93% 30.07 in 10.0 mi SSE 5.8 mph - N/A   Clear
1:15 AM 59.5 °F 57.4 °F 93% 30.07 in 7.0 mi SSE 5.8 mph - N/A   Clear
1:35 AM 59.0 °F 57.2 °F 94% 30.07 in 7.0 mi SSE 4.6 mph - N/A   Clear
1:55 AM 58.3 °F 56.8 °F 95% 30.07 in 4.0 mi SSE 4.6 mph - N/A   Clear
2:15 AM 58.6 °F 58.6 °F 100% 30.06 in 4.0 mi SSE 4.6 mph - N/A   Clear
2:35 AM 58.3 °F 58.3 °F 100% 30.05 in 2.0 mi SSE 5.8 mph - N/A   Mist
2:55 AM 58.8 °F 58.8 °F 100% 30.06 in 2.5 mi SE 3.5 mph - N/A   Mist
3:15 AM 59.5 °F 59.5 °F 100% 30.05 in 1.0 mi SE 3.5 mph - N/A   Mist
3:35 AM 59.9 °F 59.9 °F 100% 30.05 in 2.5 mi SE 3.5 mph - N/A   Mist
3:55 AM 59.4 °F 59.4 °F 100% 30.06 in 1.2 mi Calm Calm - N/A   Scattered Clouds
4:15 AM 59.5 °F 59.5 °F 100% 30.06 in 0.2 mi Calm Calm - N/A Fog Fog
6:00 AM 60.8 °F 60.8 °F 100% 30.06 in 2.0 mi Calm Calm - N/A   Mostly Cloudy
6:45 AM 60.8 °F 60.8 °F 100% 30.07 in 3.0 mi ESE 4.6 mph - N/A   Scattered Clouds
7:45 AM 62.6 °F 62.6 °F 100% 30.08 in 7.0 mi ESE 4.6 mph - N/A   Scattered Clouds
8:45 AM 66.2 °F 66.2 °F 100% 30.09 in 10.0 mi SE 9.2 mph - N/A   Scattered Clouds
9:50 AM 73.4 °F 62.6 °F 69% 30.11 in 10.0 mi SSE 12.7 mph - N/A   Mostly Cloudy
10:45 AM 73.4 °F 60.8 °F 65% 30.13 in 10.0 mi South 10.4 mph - N/A   Scattered Clouds
11:55 AM 78.8 °F 57.2 °F 47% 30.12 in 10.0 mi South 11.5 mph 17.3 mph N/A   Scattered Clouds
12:50 PM 77.0 °F 57.2 °F 50% 30.10 in 10.0 mi SSW 9.2 mph - N/A   Scattered Clouds
1:45 PM 78.8 °F 57.2 °F 47% 30.08 in 10.0 mi South 12.7 mph - N/A   Scattered Clouds
2:55 PM 78.8 °F 57.2 °F 47% 30.05 in 10.0 mi South 12.7 mph 17.3 mph N/A   Scattered Clouds
5:50 PM 77.0 °F 55.4 °F 47% 29.99 in 10.0 mi SSE 12.7 mph - N/A   Clear
9:15 PM 63.9 °F 60.1 °F 87% 29.99 in 10.0 mi SSE 5.8 mph - N/A   Clear
9:35 PM 63.0 °F 60.1 °F 90% 30.00 in 10.0 mi SSE 5.8 mph - N/A   Clear
9:55 PM 63.7 °F 61.2 °F 91% 30.00 in 10.0 mi SSE 8.1 mph - N/A   Clear
10:15 PM 65.3 °F 62.6 °F 91% 29.99 in 10.0 mi SSE 8.1 mph - N/A   Scattered Clouds
10:35 PM 67.1 °F 64.0 °F 90% 29.99 in 10.0 mi SE 10.4 mph - N/A   Scattered Clouds
10:55 PM 67.1 °F 64.2 °F 90% 29.99 in 7.0 mi SSE 9.2 mph - N/A   Clear
11:15 PM 66.7 °F 64.4 °F 92% 29.99 in 7.0 mi SSE 8.1 mph - N/A   Clear
11:35 PM 66.4 °F 64.0 °F 92% 29.99 in 5.0 mi SSE 8.1 mph - N/A   Clear
11:55 PM 66.6 °F 63.9 °F 91% 29.99 in 7.0 mi SSE 9.2 mph - N/A   Clear